Weather History for Muscle Shoals, AL

Change the Weather History Date:

Saturday, September 21, 2013

  Actual Average Record
Temperature  
Mean Temperature 71 °F 71 °F  
Max Temperature 80 °F 83 °F 100 °F (2010)
Min Temperature 61 °F 60 °F 40 °F (1918)
Degree Days  
Heating Degree Days 0 1  
Month to date heating degree days 0 3  
Since 1 July heating degree days 0 3  
Cooling Degree Days 6 7  
Month to date cooling degree days 259 211  
Year to date cooling degree days 1740 1754  
Growing Degree Days 22 (Base 50)    
Moisture  
Dew Point 63 °F    
Average Humidity 66    
Maximum Humidity 90    
Minimum Humidity 42    
Precipitation  
Precipitation 1.09 in 0.13 in 2.29 in (2003)
Month to date precipitation 2.15 2.58  
Year to date precipitation 45.04 38.29  
Snow  
Snow 0.00 in - - ()
Month to date snowfall 0.0  
Since 1 July snowfall 0.0  
Since 1 September snowfall 0.0  
Snow Depth 0.00 in    
Sea Level Pressure  
Sea Level Pressure 29.82 in    
Wind  
Wind Speed 6 mph (North)    
Max Wind Speed 15 mph    
Max Gust Speed 23 mph    
Visibility 10 miles    
Events Rain    
T = Trace of Precipitation, MM = Missing Value Source: NWS Daily Summary

Daily Weather History Graph

Daily Weather History Graph

Search for Another Location

Airport:

Trip Planner

Search our weather history database for the weather conditions in past years. The results will help you decide how hot, cold, wet, or windy it might be!

Date:

Astronomy

Sep. 21, 2013 Rise Set
Actual Time 6:37 AM CDT 6:48 PM CDT
Civil Twilight 6:12 AM CDT 7:13 PM CDT
Nautical Twilight 5:43 AM CDT 7:42 PM CDT
Astronomical Twilight 5:13 AM CDT 8:12 PM CDT
Moon 8:06 PM CDT (9/21) 8:48 AM CDT (9/21)
Length of Visible Light 13h 00m
Length of Day
12h 10m
Waning Gibbous, 94% of the Moon is Illuminated
Sep 21
Waning Gibbous
Sep 26
Last Quarter
Oct 4
New
Oct 11
First Quarter
Oct 18
Full

Hourly Weather History & Observations

Time (CDT) Temp. Heat Index Dew Point Humidity Pressure Visibility Wind Dir Wind Speed Gust Speed Precip Events Conditions
12:53 AM 73.0 °F - 70.0 °F 90% 29.81 in 10.0 mi SSW 5.8 mph - 0.06 in Rain Rain
1:53 AM 73.0 °F - 70.0 °F 90% 29.78 in 10.0 mi South 6.9 mph - 0.15 in Rain Light Rain
2:53 AM 73.0 °F - 70.0 °F 90% 29.76 in 10.0 mi SSW 6.9 mph - 0.08 in Rain Light Rain
3:31 AM 73.4 °F - 69.8 °F 88% 29.77 in 10.0 mi WSW 3.5 mph - 0.06 in Rain Light Rain
3:53 AM 73.0 °F - 70.0 °F 90% 29.74 in 10.0 mi Calm Calm - 0.10 in Rain Rain
3:55 AM 73.4 °F - 69.8 °F 88% 29.77 in 10.0 mi Calm Calm - 0.01 in Rain Rain
4:03 AM 73.4 °F - 69.8 °F 88% 29.77 in 10.0 mi WSW 6.9 mph - 0.07 in Rain Heavy Rain
4:29 AM 69.8 °F - 66.2 °F 88% 29.78 in 10.0 mi North 9.2 mph 23.0 mph 0.24 in Rain Heavy Rain
4:49 AM 69.8 °F - 66.2 °F 88% 29.79 in 10.0 mi North 6.9 mph - 0.32 in Rain Rain
4:53 AM 69.1 °F - 66.0 °F 90% 29.77 in 10.0 mi North 6.9 mph - 0.33 in Rain Rain
5:20 AM 69.8 °F - 66.2 °F 88% 29.80 in 10.0 mi North 6.9 mph - 0.05 in Rain Rain
5:37 AM 69.8 °F - 66.2 °F 88% 29.80 in 10.0 mi North 4.6 mph - 0.09 in Rain Rain
5:53 AM 69.1 °F - 64.9 °F 87% 29.79 in 10.0 mi NNW 8.1 mph - 0.13 in Rain Rain
6:04 AM 68.0 °F - 64.4 °F 88% 29.81 in 10.0 mi North 5.8 mph - 0.04 in Rain Rain
6:13 AM 68.0 °F - 64.4 °F 88% 29.81 in 10.0 mi Variable 6.9 mph - 0.06 in Rain Rain
6:20 AM 69.8 °F - 64.4 °F 83% 29.81 in 10.0 mi NNE 5.8 mph - 0.06 in Rain Light Rain
6:25 AM 69.8 °F - 64.4 °F 83% 29.81 in 10.0 mi Variable 6.9 mph - 0.07 in Rain Light Rain
6:39 AM 69.8 °F - 64.4 °F 83% 29.81 in 10.0 mi Variable 4.6 mph - 0.08 in Rain Light Rain
6:53 AM 69.1 °F - 64.9 °F 87% 29.80 in 10.0 mi North 5.8 mph - 0.10 in Rain Light Rain
7:00 AM 69.8 °F - 64.4 °F 83% 29.82 in 10.0 mi NNE 5.8 mph - 0.00 in Rain Light Rain
7:10 AM 69.8 °F - 64.4 °F 83% 29.83 in 10.0 mi North 4.6 mph - 0.02 in Rain Rain
7:35 AM 69.8 °F - 64.4 °F 83% 29.84 in 10.0 mi Variable 3.5 mph - 0.08 in Rain Rain
7:53 AM 68.0 °F - 64.9 °F 90% 29.83 in 10.0 mi Variable 3.5 mph - 0.12 in Rain Rain
8:04 AM 68.0 °F - 64.4 °F 88% 29.84 in 10.0 mi Calm Calm - 0.02 in Rain Rain
8:15 AM 68.0 °F - 64.4 °F 88% 29.84 in 10.0 mi Variable 4.6 mph - 0.04 in Rain Rain
8:53 AM 68.0 °F - 64.0 °F 87% 29.83 in 10.0 mi NE 5.8 mph - 0.07 in Rain Light Rain
9:50 AM 69.8 °F - 64.4 °F 83% 29.86 in 10.0 mi Calm Calm - 0.01 in   Overcast
9:53 AM 69.1 °F - 64.9 °F 87% 29.85 in 10.0 mi Calm Calm - 0.01 in   Overcast
10:23 AM 69.8 °F - 64.4 °F 83% 29.86 in 10.0 mi North 6.9 mph - N/A   Overcast
10:53 AM 70.0 °F - 64.9 °F 84% 29.86 in 10.0 mi Variable 3.5 mph - N/A   Overcast
11:03 AM 69.8 °F - 66.2 °F 88% 29.88 in 10.0 mi North 10.4 mph - 0.01 in Rain Light Rain
11:23 AM 69.8 °F - 64.4 °F 83% 29.88 in 10.0 mi North 6.9 mph - 0.01 in   Overcast
11:53 AM 68.0 °F - 64.0 °F 87% 29.86 in 10.0 mi NNW 8.1 mph - 0.01 in   Overcast
12:02 PM 68.0 °F - 62.6 °F 83% 29.88 in 10.0 mi NNW 8.1 mph - N/A   Overcast
12:17 PM 69.8 °F - 64.4 °F 83% 29.87 in 10.0 mi North 5.8 mph - N/A   Overcast
12:53 PM 72.0 °F - 63.0 °F 73% 29.86 in 10.0 mi North 6.9 mph - N/A   Mostly Cloudy
1:02 PM 73.4 °F - 64.4 °F 73% 29.87 in 10.0 mi NNW 8.1 mph - N/A   Mostly Cloudy
1:41 PM 75.2 °F - 62.6 °F 65% 29.85 in 10.0 mi North 8.1 mph - N/A   Scattered Clouds
1:53 PM 75.9 °F - 61.0 °F 60% 29.83 in 10.0 mi Variable 6.9 mph - N/A   Partly Cloudy
2:53 PM 77.0 °F - 59.0 °F 54% 29.82 in 10.0 mi Variable 6.9 mph - N/A   Partly Cloudy
3:53 PM 80.1 °F 80.2 °F 55.9 °F 43% 29.81 in 10.0 mi NNW 6.9 mph - N/A   Clear
4:53 PM 78.1 °F - 54.0 °F 43% 29.80 in 10.0 mi NNW 8.1 mph - N/A   Clear
5:53 PM 75.9 °F - 53.1 °F 45% 29.82 in 10.0 mi NNW 8.1 mph - N/A   Clear
6:53 PM 70.0 °F - 55.0 °F 59% 29.82 in 10.0 mi NNW 4.6 mph - N/A   Clear
7:53 PM 66.9 °F - 55.0 °F 66% 29.84 in 10.0 mi North 6.9 mph - N/A   Clear
8:53 PM 66.9 °F - 53.1 °F 61% 29.86 in 10.0 mi North 8.1 mph - N/A   Clear
9:53 PM 64.9 °F - 53.1 °F 65% 29.87 in 10.0 mi North 4.6 mph - N/A   Clear
10:53 PM 64.0 °F - 52.0 °F 65% 29.87 in 10.0 mi North 4.6 mph - N/A   Clear
11:53 PM 62.1 °F - 52.0 °F 70% 29.87 in 10.0 mi North 5.8 mph - N/A   Clear